Grand Rapids, MI

5:14 PM EST on November 17, 2019 (GMT -0500)
Gerald R. Ford International

Weather History for KGRR - July, 2019

Change the Weather History Date:

Wednesday, July 31, 2019

  Actual Average Record
Temperature  
Mean Temperature 69 °F 72 °F  
Max Temperature 80 °F 82 °F 98 °F (1917)
Min Temperature 58 °F 62 °F 46 °F (1971)
Degree Days  
Heating Degree Days 0 0  
Month to date heating degree days 0 0  
Since 1 June heating degree days 49 51  
Since 1 July heating degree days 0 6  
Cooling Degree Days 4 7  
Month to date cooling degree days 332 239  
Year to date cooling degree days 449 431  
Since 1 June cooling degree days 443 384  
Growing Degree Days 18 (Base 50)    
Moisture  
Dew Point 53 °F    
Average Humidity 57    
Maximum Humidity 78    
Minimum Humidity 35    
Precipitation  
Precipitation 0.00 in 0.12 in 1.59 in (1925)
Month to date precipitation 3.92 3.78  
Year to date precipitation 26.85 21.13  
Snow  
Snow 0.00 in 0.00 in 0.00 in (2006)
Month to date snowfall 0.0 0.0  
Since 1 June snowfall 0.0 0.0  
Since 1 July snowfall 0.0 0.0  
Snow Depth 0.00 in    
Sea Level Pressure  
Sea Level Pressure 30.14 in    
Wind  
Wind Speed 6 mph (NNE)    
Max Wind Speed 13 mph    
Max Gust Speed 17 mph    
Visibility 10 miles    
Events      
T = Trace of Precipitation, MM = Missing Value Source: NWS Daily Summary

Daily Weather History Graph

Daily Weather History Graph

Search for Another Location

Airport or City:

Astronomy

Jul. 31, 2019 Rise Set
Actual Time 6:32 AM EDT 9:04 PM EDT
Civil Twilight 5:59 AM EDT 9:36 PM EDT
Nautical Twilight 5:19 AM EDT 10:16 PM EDT
Astronomical Twilight 4:33 AM EDT 11:01 PM EDT
Moon 5:42 AM EDT (7/31) 9:04 PM EDT (7/31)
Length of Visible Light 15h 36m
Length of Day
14h 32m
Waning Crescent, 0% of the Moon is Illuminated
Jul 31
Waning Crescent
Jul 31
New
Aug 7
First Quarter
Aug 15
Full
Aug 23
Last Quarter

Hourly Weather History & Observations

Time (EDT) Temp. Dew Point Humidity Pressure Visibility Wind Dir Wind Speed Gust Speed Precip Events Conditions
12:53 AM 63.0 °F 55.0 °F 75% 30.07 in 10.0 mi North 5.8 mph - N/A   Scattered Clouds
1:53 AM 62.1 °F 55.9 °F 80% 30.08 in 10.0 mi North 4.6 mph - N/A   Mostly Cloudy
2:53 AM 62.1 °F 55.0 °F 78% 30.09 in 10.0 mi North 8.1 mph - N/A   Partly Cloudy
3:53 AM 62.1 °F 54.0 °F 75% 30.09 in 10.0 mi NNE 11.5 mph - N/A   Overcast
4:53 AM 62.1 °F 54.0 °F 75% 30.10 in 10.0 mi NNE 9.2 mph - N/A   Overcast
5:53 AM 60.1 °F 52.0 °F 75% 30.12 in 10.0 mi NE 10.4 mph - N/A   Mostly Cloudy
6:20 AM 60.1 °F 52.0 °F 75% 30.13 in 10.0 mi NE 4.6 mph - N/A   Mostly Cloudy
6:40 AM 59.0 °F 52.0 °F 78% 30.13 in 10.0 mi NNE 5.8 mph - N/A   Scattered Clouds
6:53 AM 59.0 °F 52.0 °F 78% 30.14 in 10.0 mi North 4.6 mph - N/A   Scattered Clouds
7:53 AM 60.1 °F 53.1 °F 78% 30.15 in 10.0 mi North 9.2 mph - N/A   Partly Cloudy
8:53 AM 63.0 °F 53.1 °F 70% 30.16 in 10.0 mi North 11.5 mph - N/A   Partly Cloudy
9:53 AM 66.9 °F 55.0 °F 66% 30.17 in 10.0 mi NNE 8.1 mph - N/A   Partly Cloudy
10:53 AM 69.1 °F 55.0 °F 61% 30.17 in 10.0 mi NNE 6.9 mph - N/A   Partly Cloudy
11:53 AM 70.0 °F 54.0 °F 57% 30.17 in 10.0 mi NE 8.1 mph - N/A   Partly Cloudy
12:53 PM 73.0 °F 54.0 °F 51% 30.17 in 10.0 mi Variable 3.5 mph - N/A   Partly Cloudy
1:53 PM 75.0 °F 55.0 °F 50% 30.17 in 10.0 mi NE 5.8 mph - N/A   Scattered Clouds
2:53 PM 77.0 °F 52.0 °F 42% 30.16 in 10.0 mi NW 5.8 mph - N/A   Scattered Clouds
3:53 PM 78.1 °F 51.1 °F 39% 30.15 in 10.0 mi North 4.6 mph - N/A   Partly Cloudy
4:53 PM 79.0 °F 50.0 °F 36% 30.14 in 10.0 mi East 6.9 mph - N/A   Partly Cloudy
5:53 PM 79.0 °F 48.9 °F 35% 30.14 in 10.0 mi NE 4.6 mph - N/A   Partly Cloudy
6:53 PM 79.0 °F 48.9 °F 35% 30.12 in 10.0 mi Variable 4.6 mph - N/A   Partly Cloudy
7:53 PM 75.9 °F 50.0 °F 40% 30.13 in 10.0 mi NNE 4.6 mph - N/A   Partly Cloudy
8:53 PM 73.9 °F 48.9 °F 41% 30.12 in 10.0 mi North 3.5 mph - N/A   Partly Cloudy
9:53 PM 69.1 °F 54.0 °F 58% 30.14 in 10.0 mi Calm Calm - N/A   Partly Cloudy
10:53 PM 64.9 °F 53.1 °F 65% 30.15 in 10.0 mi Calm Calm - N/A   Clear
11:53 PM 66.0 °F 55.9 °F 70% 30.16 in 10.0 mi West 4.6 mph - N/A   Clear